Temperature
21 20 20 21 26 28 27 27 28 27 27 26 26 26 26 25 25 23 21 20 20 20 19 19 19 19 19 19 19 18 18 18 18 18 18 19 19 19 18 19 19 18 18 18 18 18 18 18 18
20 20 20 24 29 28 27 28 27 27 26 26 26 26 25 24 22 21 20 20 20 20 19 18 19 19 18 18 18 18 18 18 18 18 18 18 18 18 18 18 18 18 18 18 18 18 18 18 18
20 20 24 29 29 28 27 28 27 27 26 26 26 25 24 23 21 21 20 20 20 19 19 18 19 19 19 19 19 19 18 18 18 18 18 18 18 18 18 18 18 18 18 18 18 18 18 18 18
21 23 26 29 28 28 28 28 28 27 26 26 26 25 23 21 21 20 20 20 20 19 19 18 19 19 19 19 19 19 18 18 18 18 18 18 18 18 18 18 18 18 18 18 18 18 18 18 18
22 26 29 29 28 28 29 28 27 28 27 26 26 25 23 20 20 20 20 20 20 20 19 18 19 19 19 19 19 19 18 18 18 18 18 18 18 18 18 18 18 18 18 18 18 18 18 18 18
26 29 30 28 28 29 29 28 27 27 27 26 26 25 22 20 20 20 20 20 20 20 19 19 19 19 19 19 19 19 19 18 18 18 18 18 18 18 18 18 18 18 18 18 18 18 18 18 17
28 30 29 29 28 28 28 28 28 28 27 26 25 25 23 21 20 20 20 20 20 20 19 19 19 19 19 19 19 18 18 18 18 18 18 18 18 18 18 18 18 18 18 18 18 18 18 18 18
27 30 30 29 29 28 28 28 27 27 26 25 25 25 23 21 20 20 20 20 20 20 19 19 19 19 18 18 18 18 18 18 18 18 18 18 18 18 18 18 18 18 18 18 18 18 18 18 18
27 30 30 30 29 29 28 28 27 26 26 25 24 24 23 21 20 20 20 20 20 19 19 19 19 19 19 18 18 18 18 18 18 18 18 18 17 17 17 17 18 18 17 17 18 17 18 18 17
29 30 30 30 30 30 29 28 27 27 26 25 24 22 21 21 21 21 21 20 20 19 19 19 19 19 18 18 18 18 18 18 18 18 18 17 17 17 17 18 18 18 18 18 18 18 18 17 17
30 30 30 30 29 29 29 28 27 28 27 26 25 23 22 21 21 21 21 20 20 19 19 19 19 18 18 18 18 18 18 18 18 18 18 18 17 17 17 17 17 17 17 17 17 17 17 17 17
30 30 30 30 29 29 29 28 28 27 27 25 24 23 22 22 22 21 21 20 20 19 19 19 19 18 18 18 18 18 18 18 18 17 17 17 17 17 17 17 17 17 17 17 17 17 17 17 17
31 31 30 29 29 29 28 28 27 26 25 24 23 23 22 22 22 21 21 20 19 19 19 19 18 18 18 18 18 18 18 18 17 18 17 17 17 17 17 17 17 17 17 17 17 17 17 17 17
31 30 30 29 29 29 29 28 27 26 25 24 23 23 22 22 21 21 20 20 19 19 19 19 19 18 18 18 18 18 17 18 17 17 17 17 17 17 17 17 17 17 17 17 17 17 17 17 17
30 31 31 30 30 29 29 29 28 26 25 24 24 23 22 22 21 21 20 20 20 19 19 19 18 18 18 18 18 18 17 17 17 17 17 17 17 17 17 17 17 17 17 17 17 17 17 17 17
31 31 31 31 30 29 30 29 28 26 25 25 24 23 22 21 21 20 20 20 19 19 19 19 18 18 18 18 18 17 17 17 17 17 17 17 17 17 17 17 17 17 17 17 17 17 17 17 17
32 31 31 31 31 30 30 29 28 26 26 25 24 24 23 22 21 21 20 19 19 19 19 19 18 18 18 18 18 17 17 17 17 17 17 17 17 17 17 17 17 17 17 17 17 17 17 17 17
31 32 31 31 31 30 30 29 28 26 26 26 25 24 23 22 22 21 20 20 19 19 19 19 18 18 18 18 18 17 17 17 17 17 17 17 16 16 16 16 17 17 17 17 17 17 17 17 17
32 31 31 31 31 30 30 29 28 27 26 26 26 25 24 23 22 21 20 19 19 19 19 19 18 18 18 18 18 17 17 17 17 17 17 17 16 16 16 16 16 16 16 16 16 16 17 17 17
32 31 31 30 30 30 30 29 29 28 27 26 26 25 24 23 22 21 20 20 19 19 19 19 18 18 18 18 18 17 17 17 17 17 17 17 16 16 16 16 16 16 16 16 16 16 16 16 16
32 31 31 30 30 30 30 29 29 28 27 26 25 25 24 23 22 21 20 20 19 19 19 19 18 18 18 18 17 17 17 17 17 17 17 17 16 16 16 16 16 16 16 16 16 16 16 16 16
31 31 31 30 30 31 30 30 29 29 28 27 26 25 25 24 23 22 21 20 20 19 19 19 19 18 18 18 17 17 17 17 17 17 16 16 16 16 16 16 16 16 16 16 16 16 16 16 16
31 31 31 31 31 31 30 30 30 29 28 28 27 26 25 24 23 22 21 20 20 19 19 19 18 18 18 18 17 17 17 17 16 16 16 16 16 16 16 16 16 16 16 16 16 16 16 16 16
31 31 31 31 31 30 30 30 30 30 29 29 28 26 25 24 23 22 21 20 20 20 19 19 18 18 18 18 17 17 17 17 16 16 16 16 16 16 16 16 16 16 16 16 16 16 16 16 16
31 31 30 30 30 30 30 30 29 29 29 29 28 26 25 24 23 22 21 20 20 20 19 19 18 18 18 18 17 17 17 17 16 16 16 16 16 16 16 16 16 16 16 16 16 16 16 15 15
31 31 30 29 30 30 30 30 30 29 28 27 27 26 25 24 23 22 21 20 20 20 19 19 18 18 18 17 17 17 17 16 16 16 16 16 16 16 16 16 16 16 16 16 16 15 15 15 15
31 31 32 31 30 30 30 30 30 29 28 28 27 26 25 24 23 22 21 21 20 20 19 19 18 18 17 17 17 17 17 16 16 16 16 16 16 16 16 16 16 16 16 15 15 15 15 15 15
31 32 31 31 29 29 30 29 29 29 28 28 27 26 26 24 23 22 22 21 20 20 19 18 18 18 17 17 17 17 17 16 16 16 16 16 16 16 15 15 15 15 15 15 15 15 15 15 15
30 30 30 31 30 29 29 29 30 29 28 28 28 26 25 24 23 22 21 21 20 19 19 18 18 17 17 17 17 17 17 16 16 16 16 16 16 16 15 15 15 15 15 15 15 15 15 15 14
31 31 31 30 29 29 29 29 29 29 29 28 27 26 25 24 23 22 21 20 20 19 19 18 18 17 17 17 17 16 16 16 16 16 16 15 15 15 15 15 15 15 15 15 15 14 14 14 14
Wind_Speed
12 9 5 4 4 5 10 9 8 7 6 7 6 5 7 8 6 5 5 6 6 7 8 9 8 8 8 7 7 7 6 7 8 8 9 8 8 8 9 9 9 9 9 9 9 8 9 9 9
8 6 5 4 2 8 10 8 9 9 7 6 6 6 7 8 7 6 6 6 7 7 8 9 10 8 7 7 7 6 6 6 6 7 7 8 8 7 7 8 8 8 8 8 8 8 8 8 8
6 5 4 0 8 10 10 8 8 8 6 5 5 6 5 6 6 5 6 7 7 8 8 10 9 8 7 6 6 6 5 5 5 5 6 7 7 7 7 7 7 7 7 7 7 7 8 7 8
4 4 3 4 12 11 9 8 7 7 6 5 5 7 6 6 4 6 9 8 8 8 8 11 8 8 7 7 6 6 5 5 5 5 5 5 5 6 6 7 7 7 7 7 7 7 7 8 8
4 3 3 9 11 10 9 8 6 7 6 6 6 8 7 6 7 9 9 8 8 8 8 11 9 7 7 6 6 6 5 5 4 4 4 4 4 4 4 5 6 6 7 7 7 6 6 7 8
3 1 5 10 11 9 8 6 6 7 7 6 6 7 7 7 8 8 8 7 7 7 8 10 9 7 6 6 5 5 4 3 3 3 3 4 4 4 4 4 5 5 6 7 6 6 6 6 7
2 4 8 9 9 9 7 5 5 6 7 6 4 6 7 8 8 8 8 7 7 7 6 6 7 7 7 6 4 4 3 2 2 2 3 4 4 3 3 3 4 4 5 5 5 6 6 6 7
3 1 7 8 8 8 6 5 5 5 6 5 3 5 7 8 8 8 8 7 6 6 5 5 5 5 5 6 5 3 2 2 1 2 2 3 5 5 5 5 4 3 4 4 4 5 6 6 7
3 2 8 7 7 7 6 5 5 5 6 6 5 6 9 11 9 8 7 6 6 5 4 4 4 3 2 3 5 4 3 2 2 3 3 4 4 3 5 3 3 3 4 4 4 5 6 7 8
2 5 8 5 5 6 6 5 4 5 6 6 8 10 11 11 9 8 7 6 6 4 4 3 3 2 2 2 3 1 1 2 1 1 1 1 1 1 2 4 3 4 4 5 5 6 8 9 7
1 4 5 4 3 4 6 5 3 3 5 5 8 11 12 10 9 7 6 5 5 4 3 3 3 1 1 1 1 1 1 1 1 1 0 0 1 2 2 2 3 4 5 4 4 6 5 5 4
1 3 2 3 3 3 4 4 4 3 5 6 8 11 11 10 8 7 6 5 5 4 3 3 2 1 1 1 1 0 0 0 1 1 1 0 0 1 0 1 1 2 2 1 2 2 3 4 4
1 2 2 3 4 4 4 4 4 4 6 7 9 11 10 9 7 6 5 5 4 3 2 2 2 2 1 1 1 1 1 1 1 1 1 1 1 1 0 1 1 2 1 2 2 2 2 3 4
1 1 3 4 5 5 5 4 4 5 7 9 10 10 9 7 6 6 5 4 3 2 2 2 2 2 1 1 0 1 1 1 1 1 1 2 1 1 1 1 1 1 2 1 2 2 3 3 3
3 4 4 4 4 4 4 4 4 6 8 9 9 8 7 6 6 5 4 4 3 3 2 2 2 2 2 1 1 0 1 1 1 1 1 2 2 1 2 2 2 2 2 2 2 2 2 2 3
5 5 3 4 3 4 5 2 6 7 9 9 8 8 7 6 5 5 5 4 3 3 3 2 2 2 2 1 1 1 1 2 2 2 2 2 2 2 2 2 2 2 2 1 1 2 2 1 2
5 2 1 3 3 3 5 1 5 7 8 8 7 7 7 6 6 5 5 5 4 3 3 3 2 2 2 1 1 1 1 1 1 2 2 2 2 2 2 2 2 2 2 2 2 1 1 1 2
2 2 1 1 1 4 4 1 4 6 7 7 7 7 6 6 6 5 5 5 4 4 4 3 3 2 1 1 1 1 1 1 1 1 2 2 2 2 2 1 2 3 2 1 1 1 1 2 2
4 4 2 2 0 3 3 1 2 5 6 6 6 6 6 6 6 6 5 5 5 4 4 3 2 2 1 0 1 0 0 0 0 0 1 1 2 2 2 2 1 2 2 2 2 2 2 2 1
4 4 2 1 1 2 2 2 2 4 5 5 5 5 5 5 6 7 6 6 5 5 4 4 3 2 1 0 0 1 1 1 0 1 1 1 1 1 1 2 2 2 1 2 2 2 2 2 2
4 4 2 1 2 3 4 4 4 4 5 5 5 5 6 6 7 7 7 6 6 5 5 4 3 3 2 1 1 1 0 0 0 0 0 1 1 1 2 2 2 2 2 1 2 2 3 2 2
3 2 3 3 5 2 4 2 4 5 5 6 6 6 6 6 6 7 8 7 7 6 5 5 4 3 3 2 1 1 0 1 1 1 1 1 1 2 2 2 2 2 2 1 2 1 2 3 3
2 1 3 4 5 4 3 5 3 5 3 4 5 6 6 6 6 6 7 7 7 6 6 5 5 4 3 3 2 1 1 0 1 1 2 1 1 2 2 2 2 2 2 2 2 1 3 3 3
3 4 5 6 7 5 2 5 0 2 1 2 4 5 6 6 6 6 6 6 6 6 6 5 5 4 4 3 3 2 1 1 1 1 1 1 1 1 2 2 2 2 2 2 2 2 2 2 2
7 7 5 5 5 2 1 4 1 3 0 1 2 4 5 6 7 7 7 6 6 6 6 5 5 5 5 4 3 3 2 2 1 2 1 2 2 1 2 2 2 2 2 2 2 1 1 2 2
6 8 6 6 6 3 2 3 2 3 1 1 3 4 5 6 6 7 7 7 6 6 6 5 5 5 5 4 4 3 3 2 1 1 2 2 2 2 2 2 2 2 2 2 1 1 1 1 2
7 7 8 8 8 7 3 1 2 3 3 4 4 5 5 6 6 7 7 7 6 6 5 5 5 5 4 4 4 3 3 2 2 1 2 2 2 2 2 2 2 2 2 1 1 1 1 1 2
6 6 6 7 6 7 4 4 1 2 3 4 5 5 5 6 7 7 7 6 6 5 5 5 5 4 4 4 3 3 3 2 2 1 1 2 2 2 2 2 2 2 1 1 1 1 1 1 1
6 7 6 6 7 8 6 1 3 1 3 5 5 5 5 5 6 7 6 6 6 6 6 5 5 4 4 3 3 2 2 2 1 1 1 1 1 1 1 2 2 2 2 2 2 2 1 2 2
8 8 8 7 6 7 8 1 4 2 3 4 5 5 5 5 6 6 7 7 6 6 6 5 4 4 4 3 3 2 2 1 1 1 1 1 1 1 1 1 2 2 2 2 2 3 2 2 2
Wind_Direction
174 177 198 231 221 83 64 61 67 77 71 65 69 65 62 52 42 71 91 99 107 115 117 124 115 116 116 114 110 111 111 124 133 141 148 156 158 160 162 163 163 162 159 158 157 156 156 154 153
168 177 223 241 50 75 69 65 71 72 81 89 81 75 72 66 59 93 108 110 118 118 121 115 115 112 110 114 117 115 115 123 130 143 154 162 165 164 163 163 162 160 158 157 158 159 159 159 162
173 218 260 331 57 62 71 72 81 88 83 78 79 64 56 62 75 99 108 122 118 111 112 109 114 111 108 109 113 117 117 121 128 143 155 164 165 165 165 164 164 163 162 160 159 161 164 167 171
203 228 232 74 71 65 70 79 89 96 84 68 80 84 75 58 77 105 116 122 117 114 112 111 116 110 104 104 112 112 114 118 128 136 145 156 162 165 168 168 170 175 176 171 168 165 172 177 179
241 253 104 79 76 75 75 80 84 81 85 80 80 88 83 73 93 110 120 122 118 113 109 110 116 112 108 102 103 105 109 114 123 133 138 145 156 162 175 179 181 188 190 187 182 181 180 185 190
246 249 75 79 82 83 83 86 85 79 85 87 88 92 85 104 111 117 119 116 112 112 112 112 121 119 117 116 108 104 103 104 110 128 145 150 150 160 175 190 193 197 194 190 191 192 187 191 199
323 47 68 80 90 87 79 80 77 79 83 76 77 91 106 121 119 123 120 116 111 107 110 117 129 135 134 124 118 111 106 104 114 125 139 153 162 172 183 186 199 199 195 193 197 197 200 203 207
308 58 80 80 86 85 92 90 76 72 80 78 70 93 120 133 137 132 125 118 110 106 107 111 114 118 138 139 134 131 121 110 116 139 152 178 188 190 198 197 195 211 199 193 193 200 205 208 208
261 67 69 71 80 93 107 101 92 87 98 89 75 81 113 134 140 136 129 120 109 99 97 99 103 105 107 112 122 150 155 159 193 170 178 216 214 199 192 168 160 208 205 199 199 206 208 210 205
273 57 63 62 72 101 115 97 106 120 109 106 104 104 122 136 142 139 132 130 121 113 108 100 86 79 80 90 104 121 156 125 122 83 158 214 200 227 207 148 183 210 217 210 207 212 212 217 207
6 50 67 81 89 109 122 109 109 118 107 114 130 131 136 139 142 138 132 125 117 123 110 101 97 89 79 100 101 97 45 75 119 96 54 66 231 200 212 202 191 206 214 221 200 214 221 216 218
74 70 72 101 125 136 124 118 106 86 83 103 129 136 141 145 143 137 132 126 120 117 111 102 104 98 48 19 34 178 113 49 36 67 334 318 256 236 214 241 253 234 218 227 248 230 222 225 219
144 90 102 126 151 140 133 121 109 99 104 118 133 141 147 147 144 137 129 125 122 123 118 107 101 93 80 46 314 21 23 16 65 42 21 322 290 288 285 269 273 274 256 228 229 229 222 221 218
21 144 136 137 147 149 146 130 135 117 132 141 147 150 152 152 149 142 141 140 136 135 127 113 106 102 94 100 13 3 6 42 30 20 16 332 325 328 298 268 288 290 286 275 253 236 226 223 217
191 170 149 143 157 155 173 146 139 139 146 150 154 155 157 163 162 159 157 158 150 142 125 115 116 97 91 59 21 37 3 33 13 18 10 334 329 334 301 310 293 315 307 273 241 236 239 228 217
208 209 169 138 175 180 228 97 112 150 160 158 161 161 164 170 175 170 167 163 153 142 127 123 119 107 99 68 21 13 14 34 9 357 355 359 349 332 312 318 313 316 298 287 250 239 236 236 241
212 225 73 129 179 205 235 96 120 159 172 170 172 172 171 171 180 175 169 163 153 143 135 136 130 120 114 117 90 27 40 22 3 354 344 2 343 333 316 328 333 310 306 300 280 211 237 235 239
296 303 332 19 153 219 231 165 135 168 185 183 180 181 182 185 183 174 168 158 151 144 143 135 138 130 136 118 106 32 22 20 11 360 6 348 341 335 320 312 332 313 304 298 297 264 233 241 241
291 294 309 359 62 239 239 221 164 172 186 190 188 187 188 185 173 168 167 160 157 154 152 149 151 138 171 190 293 293 281 281 10 27 19 339 335 335 327 322 319 298 300 308 284 254 226 228 224
250 264 263 120 138 257 250 237 178 177 193 200 200 194 187 178 171 169 174 173 172 168 164 165 172 165 199 186 333 345 351 314 46 13 35 329 326 308 304 331 309 311 301 288 275 258 270 252 228
242 274 286 249 201 221 245 210 175 173 189 196 207 204 194 189 184 176 180 184 183 179 176 177 177 176 191 191 171 105 89 305 37 25 23 5 344 327 334 337 331 324 297 305 290 263 252 255 241
256 291 254 227 242 254 265 281 151 175 185 197 205 203 197 189 185 180 179 185 187 184 178 175 172 176 177 184 197 200 26 359 10 3 22 19 8 349 341 341 338 326 329 324 283 277 257 252 249
311 250 226 237 262 268 248 276 133 169 202 203 200 197 196 192 186 179 176 181 185 181 179 173 168 172 174 178 177 199 234 310 7 13 27 350 22 8 355 360 353 338 335 336 324 315 272 253 262
177 197 205 228 250 262 291 282 191 136 214 194 181 185 190 186 181 174 166 169 177 178 179 173 168 171 172 176 178 204 224 264 326 347 350 327 17 10 3 354 345 323 336 332 310 294 259 271 278
223 249 251 243 243 273 148 271 357 64 73 228 180 175 176 178 176 171 171 172 174 175 178 173 171 173 175 179 188 200 215 218 238 283 312 326 343 336 346 340 330 324 323 310 302 275 285 265 257
239 264 278 290 295 295 206 277 66 92 95 143 161 160 164 171 171 169 173 174 173 170 169 172 174 178 180 183 193 204 223 236 256 285 311 326 326 328 339 338 327 319 308 307 304 282 266 251 247
246 254 279 280 279 279 277 262 157 143 146 148 150 154 160 165 165 170 171 169 164 161 162 168 170 176 183 186 193 202 214 242 268 280 289 311 327 331 350 329 325 332 328 325 297 312 282 257 250
267 264 259 271 283 283 272 259 284 155 169 162 159 159 152 154 162 165 164 164 158 156 154 158 159 168 177 180 196 190 206 214 226 263 313 319 329 343 338 334 332 329 325 310 279 270 274 247 255
215 231 250 268 281 284 287 318 59 149 180 178 167 157 149 155 160 159 158 156 155 157 154 155 157 160 164 169 180 193 194 198 212 229 273 288 318 338 336 335 328 322 324 330 315 310 312 289 280
245 245 243 256 263 270 283 293 94 124 164 171 158 144 146 151 154 155 154 154 157 160 159 156 159 161 162 160 170 174 185 191 212 222 296 304 321 332 337 329 324 320 330 330 326 326 328 300 292
Height
1505 1505 1506 1508 1502 1496 1502 1501 1498 1501 1502 1506 1506 1506 1506 1508 1511 1520 1521 1520 1520 1521 1521 1520 1520 1521 1521 1522 1523 1523 1524 1525 1526 1527 1528 1529 1530 1531 1532 1533 1534 1535 1536 1537 1537 1538 1539 1540 1541
1507 1507 1508 1505 1495 1503 1507 1501 1502 1504 1506 1507 1508 1508 1509 1513 1516 1519 1520 1521 1521 1522 1522 1522 1521 1522 1523 1523 1524 1524 1525 1526 1526 1527 1528 1529 1530 1531 1532 1533 1534 1535 1536 1537 1537 1538 1539 1540 1541
1507 1507 1508 1497 1497 1504 1507 1502 1504 1506 1508 1508 1509 1511 1513 1517 1519 1521 1522 1522 1523 1523 1524 1523 1523 1523 1524 1524 1524 1525 1526 1526 1527 1528 1529 1530 1531 1531 1532 1533 1534 1534 1535 1536 1537 1538 1539 1540 1541
1509 1509 1505 1498 1503 1502 1502 1503 1505 1506 1509 1510 1510 1513 1517 1521 1521 1522 1522 1523 1524 1525 1525 1524 1524 1525 1525 1525 1525 1526 1526 1527 1527 1528 1529 1530 1531 1531 1532 1532 1533 1534 1534 1535 1536 1537 1538 1539 1540
1510 1506 1498 1500 1503 1503 1503 1506 1507 1506 1509 1511 1511 1514 1519 1523 1522 1523 1524 1525 1526 1526 1527 1526 1525 1525 1525 1526 1526 1526 1527 1527 1528 1529 1529 1530 1530 1531 1531 1532 1533 1533 1534 1535 1536 1536 1537 1539 1540
1508 1500 1499 1506 1506 1504 1505 1508 1508 1508 1511 1513 1513 1515 1521 1524 1524 1525 1525 1526 1527 1528 1528 1527 1526 1526 1526 1526 1527 1527 1528 1528 1528 1529 1529 1530 1530 1531 1531 1532 1532 1533 1533 1534 1535 1536 1536 1537 1538
1507 1498 1500 1502 1506 1506 1507 1509 1509 1509 1512 1514 1515 1516 1522 1525 1526 1526 1527 1528 1528 1529 1529 1529 1528 1527 1527 1527 1527 1527 1528 1528 1529 1529 1529 1530 1530 1530 1531 1531 1532 1532 1533 1533 1534 1535 1536 1537 1537
1507 1500 1499 1501 1505 1507 1509 1510 1511 1511 1514 1517 1517 1517 1521 1525 1526 1527 1528 1529 1529 1530 1530 1530 1530 1530 1530 1529 1528 1528 1528 1528 1528 1528 1529 1529 1530 1530 1531 1531 1531 1532 1532 1533 1533 1534 1535 1536 1537
1507 1500 1502 1502 1503 1506 1508 1509 1513 1515 1516 1518 1519 1520 1522 1525 1526 1528 1529 1530 1530 1530 1530 1531 1531 1531 1531 1531 1530 1529 1528 1528 1527 1528 1528 1529 1531 1531 1531 1531 1531 1531 1532 1532 1533 1533 1534 1535 1536
1505 1500 1503 1502 1502 1504 1508 1510 1512 1513 1515 1518 1520 1522 1524 1525 1527 1528 1529 1530 1531 1531 1531 1531 1531 1531 1531 1531 1530 1530 1530 1529 1528 1528 1529 1529 1529 1530 1531 1530 1530 1531 1531 1532 1532 1533 1534 1534 1535
1503 1502 1503 1504 1505 1506 1508 1510 1512 1511 1513 1517 1520 1523 1524 1526 1527 1528 1529 1530 1531 1532 1532 1532 1531 1531 1531 1531 1531 1530 1530 1529 1529 1529 1529 1529 1529 1529 1530 1530 1530 1531 1531 1532 1532 1533 1533 1533 1534
1504 1504 1505 1505 1507 1507 1508 1510 1512 1513 1516 1519 1521 1523 1525 1526 1527 1528 1530 1531 1532 1532 1532 1532 1532 1531 1531 1531 1531 1531 1530 1530 1530 1529 1529 1529 1529 1529 1529 1529 1530 1530 1531 1530 1531 1531 1531 1532 1532
1503 1504 1505 1506 1507 1508 1509 1510 1513 1515 1518 1520 1522 1524 1525 1526 1528 1529 1531 1532 1532 1532 1532 1532 1532 1531 1531 1530 1531 1531 1530 1530 1530 1529 1528 1528 1529 1528 1528 1528 1528 1529 1529 1529 1529 1530 1530 1530 1531
1504 1504 1505 1506 1507 1509 1509 1511 1513 1516 1519 1521 1523 1524 1526 1527 1528 1530 1531 1532 1532 1532 1532 1532 1532 1531 1531 1530 1530 1530 1530 1530 1530 1529 1528 1528 1528 1528 1528 1527 1527 1528 1528 1528 1528 1529 1529 1529 1530
1505 1503 1503 1504 1505 1507 1509 1509 1512 1516 1519 1521 1523 1525 1527 1528 1529 1529 1530 1531 1532 1532 1532 1532 1532 1532 1531 1531 1531 1531 1531 1530 1530 1529 1528 1527 1527 1527 1527 1527 1527 1527 1527 1527 1527 1527 1528 1528 1528
1501 1500 1502 1502 1504 1506 1508 1510 1511 1516 1518 1520 1522 1525 1526 1528 1529 1530 1530 1531 1532 1532 1532 1532 1532 1532 1531 1531 1531 1531 1531 1530 1529 1529 1528 1527 1527 1526 1526 1526 1526 1526 1526 1526 1526 1526 1526 1526 1527
1498 1500 1501 1502 1502 1503 1504 1507 1511 1515 1517 1519 1522 1524 1526 1527 1528 1529 1530 1531 1531 1531 1531 1531 1532 1532 1531 1531 1530 1530 1529 1529 1529 1528 1528 1527 1526 1526 1526 1526 1525 1525 1525 1525 1525 1525 1525 1525 1525
1501 1499 1500 1501 1500 1502 1502 1504 1509 1514 1515 1517 1520 1522 1524 1526 1527 1529 1529 1530 1530 1531 1531 1531 1531 1531 1531 1531 1530 1530 1529 1529 1528 1528 1527 1526 1526 1525 1525 1525 1524 1524 1524 1523 1523 1523 1523 1523 1524
1496 1498 1501 1500 1499 1501 1502 1504 1507 1511 1514 1515 1517 1520 1522 1524 1526 1527 1528 1529 1530 1530 1530 1531 1531 1530 1530 1530 1530 1529 1528 1528 1527 1527 1526 1525 1525 1525 1524 1524 1523 1523 1523 1522 1523 1522 1522 1522 1523
1497 1499 1499 1500 1501 1501 1502 1504 1504 1508 1512 1514 1516 1518 1520 1522 1524 1526 1527 1528 1529 1529 1529 1530 1530 1530 1530 1530 1529 1528 1528 1527 1527 1526 1526 1525 1525 1524 1524 1522 1523 1522 1522 1521 1521 1521 1521 1522 1522
1496 1497 1498 1501 1501 1499 1502 1503 1503 1506 1510 1513 1515 1516 1518 1520 1522 1523 1525 1527 1528 1528 1529 1529 1529 1529 1529 1529 1529 1528 1527 1527 1527 1526 1526 1525 1524 1524 1523 1522 1522 1521 1521 1521 1520 1520 1520 1521 1521
1498 1494 1496 1499 1502 1500 1501 1507 1502 1502 1505 1509 1511 1513 1515 1517 1520 1521 1523 1525 1526 1527 1528 1528 1528 1528 1528 1528 1529 1528 1528 1527 1527 1526 1526 1525 1524 1523 1523 1522 1521 1520 1521 1520 1520 1520 1520 1520 1521
1496 1494 1495 1496 1497 1499 1499 1502 1500 1499 1503 1504 1507 1510 1513 1515 1517 1519 1521 1523 1525 1526 1527 1527 1527 1527 1527 1528 1528 1528 1528 1527 1527 1526 1526 1525 1524 1523 1522 1521 1521 1520 1520 1519 1519 1519 1519 1519 1520
1495 1496 1496 1494 1493 1507 1502 1504 1503 1496 1499 1500 1504 1508 1511 1513 1516 1518 1520 1522 1523 1525 1526 1526 1526 1526 1526 1527 1527 1527 1527 1527 1527 1526 1526 1525 1524 1523 1522 1521 1520 1519 1519 1518 1518 1517 1518 1518 1518
1494 1497 1505 1508 1507 1506 1498 1502 1502 1496 1497 1499 1502 1506 1509 1512 1514 1516 1518 1520 1522 1523 1524 1525 1524 1525 1525 1526 1526 1526 1526 1526 1526 1526 1525 1525 1524 1523 1522 1521 1519 1519 1518 1517 1517 1516 1516 1516 1516
1491 1492 1508 1518 1513 1501 1498 1502 1496 1495 1498 1501 1503 1505 1508 1510 1512 1515 1517 1519 1520 1521 1522 1523 1523 1524 1524 1525 1525 1525 1526 1526 1526 1525 1525 1524 1524 1523 1521 1520 1519 1518 1517 1517 1516 1516 1515 1515 1515
1491 1491 1486 1495 1499 1503 1499 1496 1493 1494 1497 1500 1502 1504 1506 1509 1511 1513 1515 1517 1519 1520 1521 1522 1522 1523 1523 1524 1524 1524 1524 1524 1524 1524 1524 1524 1522 1522 1521 1519 1518 1517 1516 1515 1515 1515 1514 1514 1514
1488 1486 1490 1495 1512 1513 1504 1499 1497 1495 1496 1497 1500 1502 1505 1508 1510 1512 1514 1516 1518 1519 1520 1521 1521 1522 1522 1523 1524 1524 1523 1523 1523 1523 1522 1522 1521 1520 1520 1518 1518 1517 1515 1514 1514 1514 1513 1512 1512
1492 1491 1492 1492 1495 1508 1511 1503 1488 1492 1494 1496 1498 1501 1504 1507 1509 1511 1513 1515 1517 1518 1519 1520 1521 1521 1522 1522 1522 1523 1522 1522 1522 1522 1521 1520 1520 1519 1518 1517 1516 1516 1515 1514 1513 1513 1512 1511 1511
1484 1486 1488 1498 1502 1498 1501 1501 1487 1489 1492 1495 1498 1502 1504 1507 1508 1510 1513 1514 1516 1517 1519 1520 1521 1521 1521 1522 1522 1522 1521 1521 1521 1521 1520 1520 1519 1518 1517 1516 1515 1515 1514 1513 1512 1511 1511 1510 1510